Regional Weather Roundup
Issued by NWS Mt. Holly, NJ

Home | Current Version | Previous Version | Text Only | Print | Product List | Glossary On
Versions: 1 2 3 4 5 6 7 8 9 10 11 12 13 14 15 16 17 18 19 20 21 22 23 24 25 26 27
000
ASUS41 KPHI 181210
RWRPHI

REGIONAL WEATHER ROUNDUP
NATIONAL WEATHER SERVICE MOUNT HOLLY NJ
800 AM EDT FRI APR 18 2014

NOTE:  "FAIR" INDICATES FEW OR NO CLOUDS BELOW 12,000 FEET WITH NO
SIGNIFICANT WEATHER AND/OR OBSTRUCTIONS TO VISIBILITY.

 * = STATION DOES NOT REPORT PRECIPITATION (E.G. RAIN, SNOW, ETC.)
        OR FOG.

NJZ015>026-181300-
SOUTHERN NEW JERSEY

CITY           SKY/WX    TMP DP  RH WIND       PRES   REMARKS
POMONA         CLOUDY    40  32  73 NE10      30.52S WCI  33
6HR MIN TEMP:  39; 6HR MAX TEMP:  40;

RIO GRANDE*    CLOUDY    41  30  65 NE9       30.52F
MILLVILLE      CLOUDY    39  32  76 E8        30.53S WCI  33
WRIGHTSTOWN    CLOUDY    38  30  71 NE8       30.53R WCI  32
MOUNT HOLLY    CLOUDY    39  30  70 NE3       30.54R
TRENTON        CLOUDY    38  27  64 E7        30.54R WCI  33
6HR MIN TEMP:  37; 6HR MAX TEMP:  38;


$$
NJZ001>014-181300-
NORTHERN NEW JERSEY

CITY           SKY/WX    TMP DP  RH WIND       PRES   REMARKS
SUSSEX         CLOUDY    35  30  82 CALM      30.53R
ANDOVER*         N/A     34  29  82 S5        30.53R WCI  30
MORRISTOWN     PTSUNNY   34  32  93 E5        30.56R WCI  30
NEWARK         PTSUNNY   37  28  70 N7        30.56R WCI  32
TETERBORO      MOSUNNY   38  26  62 NE3       30.55R
CALDWELL       MOSUNNY   35  26  69 E5        30.56R WCI  31
SOMERVILLE     CLOUDY    37  30  75 CALM      30.54R
ALLAIRE*       CLOUDY    37  27  65 N5        30.55R WCI  34
TOMS RIVER*    CLOUDY    39  30  70 NE3       30.55R

$$
PAZ043-044-047-054-055-060>062-066>071-181300-
EASTERN PENNSYLVANIA

CITY           SKY/WX    TMP DP  RH WIND       PRES   REMARKS
PHILADELPHIA   CLOUDY    41  28  60 E7        30.55R
6HR MIN TEMP:  39; 6HR MAX TEMP:  41;

NORTH PHILA    CLOUDY    41  29  62 E9        30.56R
BLUE BELL      CLOUDY    39  32  75 E3        30.52F
DOYLESTOWN     CLOUDY    36  29  75 VRB3      30.52R
QUAKERTOWN*    CLOUDY    36  28  75 E3        30.53S
POTTSTOWN      CLOUDY    37  29  72 E5        30.54S WCI  33
LANCASTER      CLOUDY    36  28  73 E6        30.51S WCI  31
COATESVILLE    CLOUDY    36  28  75 E8        30.51S WCI  29
READING        CLOUDY    38  28  67 SE7       30.52S WCI  33
6HR MIN TEMP:  37; 6HR MAX TEMP:  38;

ALLENTOWN      CLOUDY    38  28  67 E7        30.53R WCI  33
6HR MIN TEMP:  32; 6HR MAX TEMP:  39;

MOUNT POCONO   CLOUDY    31  26  82 SE8       30.45R WCI  23
6HR MIN TEMP:  30; 6HR MAX TEMP:  31;

HAZLETON       PTSUNNY   32  27  80 E5        30.47F WCI  27
WILKES BARRE   MOSUNNY   35  27  72 VRB6      30.48R WCI  30

$$
DEZALL-MDZ008-012-015-019-020-181300-
DELAWARE AND EASTERN MARYLAND

CITY           SKY/WX    TMP DP  RH WIND       PRES   REMARKS
WILMINGTON     CLOUDY    40  29  64 E6        30.54S
6HR MIN TEMP:  39; 6HR MAX TEMP:  40;

DOVER          CLOUDY    40  34  79 NE8       30.48F WCI  35
GEORGETOWN     CLOUDY    43  33  68 NE12      30.51F
6HR MIN TEMP:  41; 6HR MAX TEMP:  43;

EASTON         CLOUDY    41  36  81 E7        30.54F
PATUXENT       CLOUDY    41  32  70 NE9       30.49S
OCEAN CITY     CLOUDY    43  34  70 NE12G18   30.49F
WALLOPS ISLAND CLOUDY    43  36  76 NE9       30.48F
CAMBRIDGE      CLOUDY    43  32  65 NE6       30.49F
SALISBURY      CLOUDY    43  34  70 NE10      30.49F

$$
PAZ001-021-NYZ056-072-MDZ011-DCZ001-181300-
OTHER NEARBY LOCATIONS

CITY           SKY/WX    TMP DP  RH WIND       PRES   REMARKS
HARRISBURG     CLOUDY    38  28  67 E5        30.51F WCI  34
STATE COLLEGE  PTSUNNY   37  28  70 S5        30.44S WCI  34
WILLIAMSPORT   MOSUNNY   36  28  73 E3        30.48R
BINGHAMTON     MOSUNNY   32  27  81 S12       30.42R WCI  23
NEW YORK CITY  PTSUNNY   37  27  67 N5        30.57R WCI  33
BALTIMORE      CLOUDY    39  30  70 NE6       30.50S WCI  35
WASHINGTON DC  CLOUDY    41  31  67 E7        30.51S

$$



USA.gov is the U.S. government's official web portal to all federal, state and local government web resources and services.